Sheboygan, WI

8:54 PM CDT on April 26, 2018 (GMT -0500)
Sheboygan County Memorial

Weather History for KSBM - January, 2013

Change the Weather History Date:

Wednesday, January 30, 2013

  Actual Average Record
Temperature  
Mean Temperature 26 °F -  
Max Temperature 35 °F 29 °F 48 °F (1974)
Min Temperature 17 °F 15 °F -23 °F (1951)
Degree Days  
Heating Degree Days 39    
Moisture  
Dew Point 24 °F    
Average Humidity 89    
Maximum Humidity 100    
Minimum Humidity 74    
Precipitation  
Precipitation 0.17 in - - ()
Sea Level Pressure  
Sea Level Pressure 29.36 in    
Wind  
Wind Speed 14 mph (North)    
Max Wind Speed 23 mph    
Max Gust Speed 31 mph    
Visibility 3 miles    
Events Fog , Rain , Snow    
Averages and records for this station are not official NWS values.
T = Trace of Precipitation, MM = Missing Value Source: NWS Daily Summary

Daily Weather History Graph

Daily Weather History Graph

Search for Another Location

Airport or City:

Astronomy

Jan. 30, 2013 Rise Set
Actual Time 7:10 AM CST 4:59 PM CST
Civil Twilight 6:39 AM CST 5:30 PM CST
Nautical Twilight 6:04 AM CST 6:05 PM CST
Astronomical Twilight 5:31 AM CST 6:38 PM CST
Moon 9:08 PM CST (1/30) 8:28 AM CST (1/30)
Length of Visible Light 10h 51m
Length of Day
9h 49m
Waning Gibbous, 87% of the Moon is Illuminated
Jan 30
Waning Gibbous
Feb 3
Last Quarter
Feb 10
New
Feb 17
First Quarter
Feb 25
Full

Hourly Weather History & Observations

Time (CST) Temp. Windchill Dew Point Humidity Pressure Visibility Wind Dir Wind Speed Gust Speed Precip Events Conditions
12:53 AM 35.1 °F 25.9 °F 34.0 °F 96% 29.44 in 10.0 mi North 13.8 mph - 0.01 in   Overcast
1:53 AM 34.0 °F 26.0 °F 33.1 °F 96% 29.46 in 5.0 mi North 10.4 mph - 0.02 in Rain Light Rain
2:15 AM 33.8 °F 24.3 °F 32.0 °F 93% 29.43 in 6.0 mi NNE 13.8 mph 21.9 mph 0.02 in Rain Light Rain
2:53 AM 34.0 °F 25.5 °F 32.0 °F 92% 29.44 in 10.0 mi North 11.5 mph 19.6 mph 0.02 in   Overcast
3:02 AM 33.8 °F 25.8 °F 32.0 °F 93% 29.42 in 10.0 mi NNE 10.4 mph - N/A   Overcast
3:53 AM 33.1 °F 23.9 °F 30.9 °F 92% 29.46 in 4.0 mi North 12.7 mph 18.4 mph 0.01 in Snow Light Snow
4:04 AM 33.8 °F 25.8 °F 30.2 °F 87% 29.42 in 2.5 mi North 10.4 mph - 0.00 in Snow Light Snow
4:26 AM 33.8 °F 25.8 °F 32.0 °F 93% 29.43 in 3.0 mi North 10.4 mph 17.3 mph 0.03 in Rain Light Freezing Rain
4:53 AM 33.1 °F 25.5 °F 30.9 °F 92% 29.44 in 6.0 mi North 9.2 mph - 0.03 in Rain Light Freezing Rain
5:00 AM 33.8 °F 25.3 °F 30.2 °F 87% 29.43 in 7.0 mi NNE 11.5 mph - 0.00 in Rain Light Freezing Rain
5:53 AM 32.0 °F 21.2 °F 30.9 °F 96% 29.38 in 6.0 mi NNE 16.1 mph 20.7 mph 0.02 in Rain Light Freezing Rain
6:25 AM 32.0 °F 22.5 °F 30.2 °F 93% 29.39 in 9.0 mi NNE 12.7 mph - 0.00 in   Overcast
6:53 AM 32.0 °F 23.6 °F 30.9 °F 96% 29.39 in 3.0 mi NNE 10.4 mph 21.9 mph 0.01 in Snow Light Snow
6:58 AM 32.0 °F 24.2 °F 30.2 °F 93% 29.38 in 2.0 mi NNE 9.2 mph 18.4 mph 0.01 in Snow Light Snow
7:11 AM 32.0 °F 20.8 °F 30.2 °F 93% 29.38 in 3.0 mi NNE 17.3 mph 25.3 mph 0.01 in Snow Light Snow
7:21 AM 30.2 °F 20.2 °F 30.2 °F 100% 29.38 in 2.5 mi NNE 12.7 mph - 0.01 in Snow Light Snow
7:31 AM 30.2 °F 18.1 °F 30.2 °F 100% 29.36 in 1.8 mi NNE 18.4 mph 24.2 mph 0.01 in Snow Light Snow
7:53 AM 30.9 °F 18.7 °F 28.9 °F 92% 29.38 in 2.0 mi NNE 19.6 mph 27.6 mph 0.01 in Snow Light Snow
8:07 AM 30.2 °F 18.5 °F 28.4 °F 93% 29.34 in 1.5 mi NNE 17.3 mph 24.2 mph 0.00 in Snow Light Snow
8:18 AM 30.2 °F 19.8 °F 28.4 °F 93% 29.36 in 2.0 mi NNE 13.8 mph 21.9 mph 0.00 in Snow Light Snow
8:43 AM 30.2 °F 19.8 °F 28.4 °F 93% 29.34 in 1.2 mi NNE 13.8 mph - 0.00 in Snow Light Snow
8:53 AM 30.0 °F 20.0 °F 28.9 °F 96% 29.37 in 1.0 mi North 12.7 mph 20.7 mph 0.00 in Snow Light Snow
9:09 AM 30.2 °F 18.9 °F 28.4 °F 93% 29.35 in 0.8 mi NNE 16.1 mph 20.7 mph 0.01 in Snow Light Snow
9:16 AM 30.2 °F 18.9 °F 28.4 °F 93% 29.35 in 0.8 mi NNE 16.1 mph 21.9 mph 0.01 in Snow Light Snow
9:53 AM 28.9 °F 17.3 °F 27.0 °F 92% 29.34 in 0.5 mi NNE 16.1 mph 28.8 mph 0.02 in Fog , Snow Snow
10:02 AM 28.4 °F 16.2 °F 26.6 °F 93% 29.32 in 0.5 mi NNE 17.3 mph 31.1 mph 0.00 in Fog , Snow Snow
10:09 AM 28.4 °F 16.6 °F 26.6 °F 93% 29.31 in 1.0 mi NNE 16.1 mph 24.2 mph 0.00 in Snow Light Snow
10:22 AM 28.4 °F 17.0 °F 26.6 °F 93% 29.31 in 0.5 mi North 15.0 mph 21.9 mph 0.00 in Fog , Snow Snow
10:28 AM 28.4 °F 17.0 °F 26.6 °F 93% 29.31 in 0.5 mi North 15.0 mph 21.9 mph 0.00 in Fog , Snow Light Snow
10:37 AM 28.4 °F 17.0 °F 26.6 °F 93% 29.30 in 0.5 mi NNE 15.0 mph 25.3 mph 0.00 in Fog , Snow Snow
10:44 AM 28.4 °F 18.5 °F 26.6 °F 93% 29.31 in 0.5 mi North 11.5 mph 20.7 mph 0.00 in Fog , Snow Snow
10:53 AM 28.0 °F 16.1 °F 26.1 °F 92% 29.31 in 0.2 mi North 16.1 mph 23.0 mph 0.01 in Fog , Snow Snow
11:02 AM 28.4 °F 16.6 °F 26.6 °F 93% 29.28 in 0.5 mi NNE 16.1 mph 31.1 mph 0.00 in Fog , Snow Snow
11:26 AM 28.4 °F 18.5 °F 26.6 °F 93% 29.27 in 1.0 mi North 11.5 mph 23.0 mph 0.00 in Snow Light Snow
11:37 AM 28.4 °F 17.5 °F 26.6 °F 93% 29.28 in 0.8 mi North 13.8 mph - 0.00 in Snow Light Snow
11:53 AM 28.0 °F 17.0 °F 26.1 °F 92% 29.31 in 0.5 mi North 13.8 mph 24.2 mph 0.00 in Fog , Snow Snow
12:15 PM 28.4 °F 17.5 °F 26.6 °F 93% 29.29 in 0.2 mi NNW 13.8 mph 19.6 mph 0.00 in Fog , Snow Snow
12:46 PM 26.6 °F 13.4 °F 26.6 °F 100% 29.28 in 0.5 mi North 18.4 mph - 0.00 in Fog , Snow Snow
12:53 PM 28.0 °F 17.0 °F 26.1 °F 92% 29.30 in 0.8 mi NNW 13.8 mph 21.9 mph 0.00 in Snow Light Snow
1:13 PM 26.6 °F 14.3 °F 24.8 °F 93% 29.26 in 0.8 mi NNW 16.1 mph 24.2 mph 0.00 in Snow Light Snow
1:36 PM 28.4 °F 17.5 °F 24.8 °F 86% 29.26 in 1.2 mi NNW 13.8 mph 24.2 mph 0.00 in Snow Light Snow
1:48 PM 28.4 °F 17.0 °F 24.8 °F 86% 29.26 in 3.0 mi NNW 15.0 mph 21.9 mph 0.00 in Snow Light Snow
2:53 PM 26.1 °F 13.6 °F 23.0 °F 88% 29.30 in 2.5 mi NNW 16.1 mph 24.2 mph 0.01 in Snow Light Snow
3:01 PM 26.6 °F 13.4 °F 23.0 °F 86% 29.27 in 1.0 mi NNW 18.4 mph 25.3 mph 0.00 in Snow Light Snow
3:07 PM 26.6 °F 13.8 °F 23.0 °F 86% 29.27 in 0.8 mi NNW 17.3 mph 25.3 mph 0.00 in Snow Light Snow
3:23 PM 26.6 °F 12.7 °F 23.0 °F 86% 29.28 in 1.0 mi NNW 20.7 mph 26.5 mph 0.00 in Snow Light Snow
3:38 PM 26.6 °F 14.3 °F 23.0 °F 86% 29.28 in 0.8 mi NNW 16.1 mph 25.3 mph 0.00 in Snow Light Snow
3:50 PM 26.6 °F 13.1 °F 21.2 °F 80% 29.29 in 1.2 mi NNW 19.6 mph 27.6 mph 0.00 in Snow Light Snow
3:53 PM 26.1 °F 12.3 °F 21.9 °F 84% 29.31 in 1.5 mi NNW 19.6 mph - 0.00 in Snow Light Snow
4:05 PM 26.6 °F 13.1 °F 21.2 °F 80% 29.29 in 2.0 mi NNW 19.6 mph 28.8 mph 0.00 in Snow Light Snow
4:38 PM 24.8 °F 11.5 °F 21.2 °F 86% 29.30 in 2.5 mi NNW 17.3 mph 24.2 mph 0.00 in Snow Light Snow
4:53 PM 25.0 °F 9.9 °F 21.9 °F 88% 29.32 in 1.5 mi NNW 23.0 mph 28.8 mph 0.00 in Snow Light Snow
5:04 PM 24.8 °F 11.1 °F 19.4 °F 80% 29.31 in 3.0 mi NNW 18.4 mph 25.3 mph 0.00 in Snow Light Snow
5:18 PM 24.8 °F 12.4 °F 19.4 °F 80% 29.33 in 9.0 mi NNW 15.0 mph - 0.00 in   Overcast
5:53 PM 24.1 °F 12.0 °F 19.9 °F 84% 29.38 in 6.0 mi NNW 13.8 mph - 0.00 in Snow Light Snow
6:53 PM 21.0 °F 6.6 °F 17.1 °F 85% 29.40 in 7.0 mi NNW 17.3 mph 25.3 mph 0.00 in Snow Light Snow
7:53 PM 19.9 °F 6.2 °F 15.1 °F 81% 29.43 in 6.0 mi NNW 15.0 mph - 0.00 in Snow Light Snow
8:06 PM 19.4 °F 7.2 °F 15.8 °F 86% 29.40 in 2.5 mi NW 11.5 mph - 0.00 in Snow Light Snow
8:20 PM 19.4 °F 2.8 °F 15.8 °F 86% 29.41 in 3.0 mi NW 21.9 mph 29.9 mph 0.00 in Snow Light Snow
8:33 PM 19.4 °F 6.6 °F 14.0 °F 80% 29.42 in 4.0 mi NW 12.7 mph 26.5 mph 0.00 in Snow Light Snow
8:53 PM 18.0 °F 0.9 °F 12.9 °F 81% 29.45 in 4.0 mi NW 21.9 mph 27.6 mph 0.00 in Snow Light Snow
9:15 PM 17.6 °F 4.3 °F 14.0 °F 86% 29.43 in 3.0 mi WNW 12.7 mph - 0.00 in Snow Light Snow
9:22 PM 17.6 °F 4.3 °F 14.0 °F 86% 29.43 in 1.8 mi NW 12.7 mph 25.3 mph 0.00 in Snow Light Snow
9:32 PM 17.6 °F 1.7 °F 14.0 °F 86% 29.44 in 3.0 mi NW 18.4 mph 24.2 mph 0.00 in Snow Light Snow
9:53 PM 17.1 °F 2.5 °F 12.0 °F 81% 29.49 in 5.0 mi NW 15.0 mph 24.2 mph 0.00 in Snow Light Snow
10:08 PM 17.6 °F 2.2 °F 12.2 °F 79% 29.46 in 9.0 mi WNW 17.3 mph 26.5 mph 0.00 in   Mostly Cloudy
10:53 PM 17.1 °F 3.0 °F 10.9 °F 77% 29.52 in 10.0 mi NW 13.8 mph 21.9 mph 0.00 in   Partly Cloudy
11:53 PM 17.1 °F 3.6 °F 10.0 °F 74% 29.54 in 10.0 mi WNW 12.7 mph - N/A   Mostly Cloudy